Theta_e
316 316 317 317 318 319 318 311 310 309 309 309 308 308 307 307 307 309 309 309 310 309 314 311 312 312 312 310 309 307 311 312 312 312 314 308 313 309 309 311 311 316 314 317 330
316 316 317 317 318 318 318 312 310 309 309 308 308 307 307 307 308 309 308 309 310 312 312 311 310 310 309 310 309 311 311 311 309 310 311 309 311 310 312 312 313 315 316 327 333
316 316 316 316 317 317 316 312 310 309 308 308 307 307 307 308 311 307 310 308 312 311 311 311 311 310 310 310 309 309 312 310 309 309 310 310 311 309 311 313 312 313 316 328 331
316 316 316 316 317 317 315 310 309 309 308 307 307 307 308 310 305 312 314 311 313 311 310 310 309 310 310 310 308 311 309 308 309 310 310 310 308 310 310 313 309 308 314 327 330
315 316 315 316 316 317 316 312 309 308 307 307 307 308 309 308 307 311 313 313 312 310 310 308 309 309 310 309 308 309 308 307 308 308 308 309 310 310 309 307 306 307 317 327 331
315 315 315 315 315 316 316 314 309 308 307 307 307 308 311 305 308 312 312 312 310 310 310 309 308 308 307 309 309 308 308 308 308 308 308 309 307 308 307 305 305 310 314 321 328
315 315 315 314 315 315 314 313 311 308 308 308 308 309 310 304 311 310 311 312 311 310 309 309 309 309 307 308 308 307 310 308 308 308 309 308 308 308 306 305 306 306 308 315 322
315 315 314 314 315 315 313 311 310 309 309 309 310 311 305 307 310 310 310 310 310 311 310 310 310 308 308 306 306 307 306 309 307 308 308 307 308 306 305 305 306 304 302 303 312
316 315 314 314 314 314 312 311 309 310 310 311 311 307 305 309 311 311 310 310 310 310 310 310 309 307 307 307 308 306 308 308 308 307 309 307 308 305 306 306 307 305 302 302 302
316 315 315 314 314 314 311 310 311 311 313 313 312 308 306 307 311 310 309 310 309 308 309 308 305 306 303 305 307 308 308 306 307 308 309 309 308 306 305 305 306 304 304 303 303
315 315 315 315 314 312 311 313 311 309 314 307 307 304 305 310 310 309 309 308 306 306 309 306 308 308 308 306 306 306 306 306 306 307 309 308 307 308 306 306 306 305 305 305 304
316 315 316 315 313 312 313 309 306 307 310 311 311 309 310 310 310 308 309 307 308 307 306 307 307 306 306 304 305 306 307 307 307 308 309 308 308 307 306 306 306 307 306 305 305
318 315 315 315 313 312 313 311 312 309 307 307 311 310 310 310 308 308 306 305 305 305 306 306 307 305 306 305 306 305 305 306 307 306 305 304 305 305 305 304 304 303 304 304 304
318 316 315 314 313 312 313 315 316 311 307 309 310 307 310 309 310 308 307 306 305 305 304 306 304 304 305 306 305 307 304 305 307 307 306 304 306 305 304 303 303 304 303 302 300
316 316 315 313 312 312 310 312 316 307 312 307 310 308 308 308 307 309 307 306 305 305 304 305 305 305 306 306 305 306 303 305 307 306 307 307 308 305 303 306 306 305 303 304 303
316 316 315 312 312 311 309 311 309 311 309 308 311 310 310 308 309 308 308 305 303 306 306 304 304 305 305 304 305 304 305 304 304 305 308 305 305 304 304 305 305 305 303 301 303
316 317 315 312 312 311 309 310 311 313 307 312 312 310 309 309 310 309 309 307 306 306 307 309 309 306 306 306 306 305 305 308 309 309 308 304 305 305 304 302 303 304 302 304 304
317 316 314 312 312 310 310 311 315 307 308 313 312 309 309 309 311 310 310 310 307 304 306 306 308 308 307 306 308 305 305 308 308 310 307 305 307 307 304 303 304 306 307 306 305
314 315 314 312 312 309 311 314 314 306 309 313 311 311 311 310 310 310 310 310 309 304 307 307 306 308 307 306 307 308 308 305 305 295 307 305 304 304 305 304 308 308 308 306 305
310 310 311 312 310 310 312 314 312 306 313 311 313 310 312 311 312 311 310 307 308 305 305 307 308 309 309 308 309 306 305 308 306 305 306 305 305 307 307 308 309 309 309 306 305
306 311 308 310 310 311 312 312 311 312 313 314 314 312 311 311 311 312 311 308 307 306 305 305 308 311 308 309 308 307 307 307 306 307 308 305 305 301 305 304 307 308 307 306 304
304 308 307 311 310 309 311 312 311 313 315 315 316 314 312 312 312 312 310 308 306 307 309 307 308 311 310 308 309 309 307 307 309 307 306 307 308 307 303 305 307 307 306 305 303
302 304 306 306 306 307 309 312 313 315 316 316 316 316 316 313 314 312 310 311 307 308 309 309 309 305 308 308 309 310 308 307 306 307 309 309 309 305 305 306 307 307 306 305 304
300 306 304 304 303 309 312 314 315 314 315 315 315 314 316 317 316 315 314 314 312 312 312 310 310 310 310 309 310 313 309 307 309 311 310 308 309 310 308 308 307 308 306 307 302
297 301 299 306 305 307 310 313 314 315 314 315 315 315 315 318 318 318 316 316 314 314 313 311 311 310 309 309 310 309 311 310 311 311 311 310 308 306 308 308 308 306 306 303 303
298 298 299 302 307 308 308 308 313 313 313 314 313 315 315 316 317 317 317 316 317 315 314 313 314 311 310 311 313 314 310 310 310 310 310 309 308 304 307 305 306 307 306 305 303
296 296 297 299 305 307 308 309 310 311 311 311 312 314 315 314 312 312 313 313 313 314 314 313 312 316 318 311 313 316 314 311 311 309 309 311 310 307 308 307 307 306 305 304 302
Wind_Speed
19 17 17 15 15 13 12 15 15 14 12 10 9 8 8 5 6 6 7 7 3 7 6 6 6 6 4 3 3 3 4 2 3 5 3 4 4 1 0 5 2 5 3 2 16
18 18 17 17 15 14 13 14 15 14 13 10 10 9 7 4 6 9 6 6 4 5 7 7 4 4 3 2 3 4 4 8 4 4 2 5 4 8 4 2 3 2 1 6 22
20 19 18 18 17 15 14 14 15 14 12 11 9 7 3 2 3 5 5 13 6 8 4 6 6 1 3 2 2 2 5 5 4 3 4 5 2 2 6 3 6 8 5 10 13
21 21 20 19 16 16 15 15 14 13 12 10 8 6 5 3 6 2 2 11 11 10 8 7 3 3 2 5 2 5 2 5 4 3 4 6 6 3 4 4 2 6 6 12 15
23 22 22 20 18 16 14 15 15 12 10 8 7 5 4 2 6 2 4 9 9 11 9 4 4 4 5 5 4 3 4 4 3 5 4 4 2 3 6 7 3 4 8 13 15
25 25 22 21 17 16 15 14 15 12 10 8 6 5 2 4 2 3 6 10 10 10 8 6 6 4 5 3 2 4 3 4 3 3 2 3 1 0 3 3 3 5 7 8 14
24 25 23 22 18 16 15 13 12 13 10 7 6 6 1 9 1 5 7 7 9 7 5 5 6 2 5 5 2 4 4 3 3 2 2 1 4 7 4 2 3 7 6 7 12
25 24 23 22 20 18 16 14 10 9 8 7 6 5 6 3 4 7 8 7 9 8 5 8 7 6 4 4 6 4 5 3 1 4 2 3 8 5 3 3 9 8 6 7 7
24 25 22 23 20 18 16 14 13 9 8 8 5 4 5 1 4 7 8 8 9 8 7 9 6 4 4 5 4 6 4 2 4 2 2 3 6 5 3 3 5 6 8 7 8
25 26 25 23 22 20 17 15 13 10 8 8 3 2 1 4 5 9 8 13 4 5 4 6 5 4 4 3 5 4 3 2 4 2 2 2 9 8 6 4 8 7 7 7 8
26 27 27 23 22 22 25 17 5 3 1 5 5 3 2 3 6 5 7 7 4 7 5 2 4 6 7 5 3 5 3 5 2 2 2 5 7 14 6 5 9 9 9 9 11
32 30 29 25 24 25 28 3 6 7 4 8 2 3 2 4 3 2 12 6 4 5 5 5 5 8 7 8 5 4 4 2 1 2 3 4 10 12 8 7 8 9 9 11 6
33 32 29 27 26 25 16 5 8 9 5 3 5 5 4 5 4 9 8 5 5 6 6 7 3 9 8 5 7 4 6 4 4 1 2 4 7 7 4 3 5 8 10 6 8
28 34 33 31 22 23 15 11 7 6 4 4 6 7 5 6 4 4 10 5 3 8 7 3 2 7 5 5 5 5 7 5 4 3 3 2 5 5 6 9 6 11 6 7 7
28 31 38 40 20 16 19 18 3 3 1 5 5 4 6 8 6 4 5 4 10 8 8 6 9 7 5 6 7 6 6 7 3 4 2 2 1 6 2 6 10 4 4 1 5
28 33 43 34 23 26 22 20 5 4 9 5 5 9 8 4 3 4 4 5 5 5 2 3 1 5 7 4 4 10 7 7 4 3 2 6 6 4 5 7 3 3 0 4 5
30 44 48 37 14 33 36 6 4 5 2 7 6 6 9 7 5 6 8 7 7 6 4 1 2 3 5 7 5 3 7 2 1 1 5 3 2 7 7 8 5 5 6 5 4
30 45 45 33 36 40 23 7 5 5 8 3 5 9 7 6 3 7 12 9 7 5 4 8 4 8 4 7 9 7 7 6 8 4 3 2 7 7 6 4 4 4 4 5 2
17 36 32 32 48 44 13 9 11 7 9 9 5 7 6 5 6 5 10 15 15 10 8 6 5 0 2 5 10 5 6 4 7 3 3 5 7 9 9 7 3 4 2 5 2
8 6 0 46 52 35 14 16 6 6 7 6 7 6 10 9 7 8 10 6 7 10 1 7 4 1 3 4 1 7 9 4 2 4 4 5 5 8 1 6 6 5 2 2 1
5 3 4 44 39 11 11 8 5 5 5 6 7 6 7 9 8 9 11 4 10 9 5 6 4 1 4 7 10 3 4 3 5 5 6 2 7 7 10 7 8 5 5 5 4
1 4 3 35 7 6 10 7 6 6 2 3 3 4 7 10 9 9 13 8 8 13 15 7 5 4 8 2 2 3 7 7 6 6 2 3 9 3 5 6 8 7 6 4 4
2 1 4 7 5 7 4 7 6 6 6 5 4 2 2 7 6 8 7 2 6 13 15 9 3 3 5 3 2 4 3 4 5 3 7 6 12 1 4 6 6 7 5 2 3
1 3 2 2 1 6 6 7 7 1 5 4 4 4 4 4 3 6 4 1 3 3 6 10 4 12 14 5 7 6 7 7 9 3 11 11 14 1 5 7 6 6 5 3 3
1 1 1 4 4 4 4 9 9 6 3 5 3 8 7 4 8 6 4 3 2 4 3 6 8 6 3 5 4 6 9 14 16 21 10 29 15 10 12 13 13 8 6 6 5
2 1 0 2 7 8 5 5 7 7 6 5 4 14 10 7 10 11 9 5 4 2 4 2 2 3 3 6 5 2 6 14 23 21 20 13 19 8 10 3 5 8 7 5 5
1 1 1 3 2 4 4 6 7 8 2 3 10 3 8 5 4 3 3 7 7 7 4 6 5 4 8 8 5 6 25 11 6 6 10 16 19 6 5 9 11 10 7 8 8
Wind_Direction
215 205 202 202 200 201 203 187 191 195 200 209 207 226 245 246 256 224 218 204 176 223 187 171 150 149 112 88 82 147 70 137 203 158 204 150 157 312 219 125 213 198 167 283 166
212 214 200 202 202 205 197 194 193 194 200 206 207 204 236 268 263 258 232 205 198 181 176 166 154 152 74 92 32 85 109 198 192 189 207 188 191 169 144 156 192 228 230 129 160
213 212 208 206 204 207 198 194 197 194 200 203 209 211 218 244 292 245 239 221 194 180 176 167 157 86 103 110 109 145 163 189 188 206 142 175 198 200 140 220 214 195 188 152 166
211 210 212 213 201 201 197 197 199 200 198 203 205 195 178 181 205 293 246 175 172 170 151 139 116 105 104 134 138 118 153 170 143 140 131 160 129 193 226 223 145 209 171 165 177
209 208 210 212 205 194 195 193 193 200 203 202 207 188 157 156 248 207 172 171 172 165 165 135 131 131 147 129 113 125 154 155 88 103 93 116 212 224 242 252 252 81 160 181 186
207 207 208 209 204 197 189 197 186 191 193 197 198 185 152 209 228 177 162 174 175 163 159 145 174 172 104 134 130 149 99 118 89 104 100 145 225 219 267 313 252 180 194 200 202
205 204 207 202 199 200 190 187 185 184 178 182 189 168 114 232 147 166 157 179 175 175 140 160 136 89 132 119 115 108 107 67 53 17 40 140 297 229 242 15 298 235 230 219 220
203 204 207 197 193 196 187 176 178 181 166 167 170 170 230 226 204 167 152 144 152 150 140 145 128 105 73 122 35 81 52 114 274 134 335 108 262 276 23 195 248 265 258 250 236
205 203 197 196 193 189 181 168 160 160 160 152 151 169 257 160 181 185 172 147 135 121 105 122 88 93 70 102 55 12 172 155 319 204 124 149 255 271 91 54 302 279 260 249 257
198 198 194 190 189 184 168 156 141 137 136 115 84 79 256 209 171 161 165 151 121 108 52 47 59 88 48 98 184 177 161 176 222 170 95 183 257 269 272 288 273 277 272 265 255
194 197 195 190 187 177 151 132 95 32 240 181 195 183 104 120 129 161 159 119 85 62 139 354 109 174 177 187 120 137 137 169 215 25 194 238 262 275 266 264 274 254 257 250 247
194 194 190 186 182 176 163 199 190 163 164 213 271 285 188 178 105 248 164 126 124 156 116 53 203 200 146 143 128 134 137 218 56 45 197 339 286 272 255 239 225 249 247 244 257
192 189 187 182 175 175 189 212 159 149 110 195 187 171 188 146 192 201 150 130 124 134 174 158 214 154 137 149 142 152 158 174 184 183 70 338 287 280 306 264 267 248 250 261 258
194 187 183 172 165 176 200 181 154 164 83 216 200 241 148 145 249 170 176 132 84 163 137 204 95 138 121 163 129 184 200 154 141 109 233 359 280 302 278 293 276 272 272 271 276
202 195 185 175 152 173 194 193 116 53 167 214 175 157 149 155 144 230 178 56 154 159 132 227 159 149 159 192 160 210 125 142 119 111 55 329 341 263 287 279 264 274 294 55 332
198 197 183 173 163 173 175 171 109 79 230 210 141 169 135 141 110 122 150 63 130 105 63 170 207 153 172 73 135 150 85 53 57 96 285 204 177 249 199 213 258 154 96 329 332
202 197 181 172 165 164 157 116 108 191 196 188 184 169 157 153 128 149 170 164 151 119 166 105 201 174 130 87 34 73 108 44 7 359 230 333 170 245 250 232 226 250 300 307 317
198 187 175 169 162 160 148 128 189 201 207 115 123 120 184 134 179 161 147 188 246 128 135 159 229 168 181 168 165 193 161 160 190 194 229 61 232 255 243 270 256 270 285 300 287
195 183 170 171 160 160 150 191 210 177 162 146 79 148 188 207 137 143 190 199 193 184 163 154 241 96 140 153 147 203 213 156 103 21 62 219 284 288 260 266 251 233 227 290 294
143 108 94 172 161 160 170 206 213 179 137 163 155 176 171 178 153 192 171 194 201 182 205 201 123 358 168 114 35 168 153 84 5 138 229 261 269 230 161 202 204 205 177 224 288
68 98 301 159 156 169 193 202 188 217 158 156 165 152 173 169 176 195 203 214 187 179 151 147 109 356 127 216 167 149 177 93 129 160 177 232 254 215 208 194 189 183 164 159 167
108 140 280 154 151 178 187 182 159 163 197 144 121 115 162 158 169 198 208 215 178 152 192 179 125 152 201 290 346 354 185 158 171 214 234 150 258 173 201 187 160 170 171 145 136
54 120 32 125 142 173 150 173 183 156 172 164 123 120 179 160 163 192 180 208 170 174 171 174 201 82 357 342 358 208 199 137 102 83 195 149 260 340 117 148 186 172 181 175 127
343 138 55 81 243 145 151 165 161 173 154 135 124 119 134 143 63 164 147 184 166 172 132 147 135 204 210 184 138 189 193 189 193 169 224 226 240 208 208 203 220 217 218 196 148
29 28 357 151 179 155 129 160 174 153 151 165 196 209 188 171 184 186 139 136 49 158 77 143 203 193 171 134 129 188 185 197 204 221 190 244 232 199 203 200 211 198 192 161 154
132 206 17 56 157 150 168 166 163 147 158 152 157 180 171 186 205 198 158 181 175 184 142 61 176 121 273 154 148 186 224 209 214 226 237 259 259 165 207 108 148 201 180 174 146
151 29 73 355 117 135 166 155 174 126 53 141 160 137 174 161 142 159 154 137 152 144 150 142 134 140 230 165 108 264 223 202 198 201 209 228 244 162 179 194 197 201 178 171 165